Location: Helsinki
(60.1699°N, 24.9384°E)
Time: 23:33:01
(UTC+02:00)

Altair - Pass Details

Date: 03 November 2020
Orbit: 1502 x 1682 km, 47.2° (Epoch: 25 November)

Event Time Altitude Azimuth Distance (km) Brightness Sun altitude
Rises 09:34:29 0° 274° (W) 4,712 9.7 8.8°
Reaches altitude 10° 09:38:14 10° 262° (W) 3,753 9.3 9.1°
Maximum altitude 09:45:17 24° 213° (SSW) 2,838 9.3 9.6°
Drops below altitude 10° 09:52:32 10° 165° (SSE) 3,853 11.5 10.1°
Sets 09:56:27 0° 153° (SSE) 4,864 12.4 10.3°
